浦田-新島彗星

112P/Urata-Niijima (2020)

English version
Home page
Updated on April 4, 2021

---------------------------------------------------------------------

・ プロフィール

・ 写真集

・ 軌道要素

Epoch 2020 Feb. 1.0 TT = JDT 2458880.5                                          
T 2020 Feb. 7.96354 TT                                  Rudenko                 
q   1.4466205            (2000.0)            P               Q                  
n   0.14885332     Peri.   21.49945     +0.61391842     -0.75917433             
a   3.5261195      Node    31.84982     +0.65126602     +0.33234350             
e   0.5897415      Incl.   24.19083     +0.44604567     +0.55964465             
P   6.62                                                                        
From 625 observations 1986 Nov. 2-2020 Apr. 19, mean residual 0".7.             
     Nongravitational parameters A1 = +0.04, A2 = +0.0064.                      

・ 光度変化

        m1 = 11.0 + 5 logΔ + 25.0 log r(t - 30)

---------------------------------------------------------------------

軌道要素はM.P.E.C. 2021-F20に掲載されたものです。
光度グラフはComet for Windowsで作成したものです。

---------------------------------------------------------------------

Copyright(C) Seiichi Yoshida (comet@aerith.net). All rights reserved.